Vorticity
nan nan nan nan nan nan nan nan nan nan nan nan nan nan nan nan nan nan nan nan nan nan nan nan nan nan nan nan nan nan nan nan nan nan nan nan nan nan nan nan nan nan nan nan nan nan nan nan nan
nan 4 5 6 7 5 6 7 12 11 8 6 6 5 4 7 14 11 9 11 5 5 5 9 9 8 6 5 6 6 6 6 6 6 6 5 5 4 5 5 5 4 5 5 6 6 6 5 nan
nan 4 7 7 8 6 8 9 12 9 2 2 6 6 6 11 8 5 9 6 4 6 8 11 7 5 6 6 7 5 6 7 6 6 5 6 5 5 5 5 5 5 4 4 6 6 6 5 nan
nan 7 5 6 7 10 11 13 4 0 1 10 6 4 10 8 9 13 9 5 5 5 8 9 7 5 5 6 5 6 5 5 5 6 6 6 5 6 5 5 5 6 6 5 5 5 6 6 nan
nan 7 7 7 9 14 12 5 2 8 8 8 7 5 4 11 17 9 5 5 3 5 7 7 9 6 5 5 5 6 6 6 6 5 4 4 3 4 5 5 5 6 6 6 6 5 5 6 nan
nan 7 6 7 13 8 6 2 6 8 10 7 8 7 11 14 5 4 5 5 5 6 6 9 7 4 6 5 5 5 5 5 4 4 5 5 5 4 4 5 6 7 6 6 6 6 5 5 nan
nan 7 6 7 6 6 8 6 7 5 2 9 6 4 11 7 6 6 5 6 7 5 5 7 7 8 6 4 5 5 5 5 5 5 4 4 4 5 6 7 9 9 6 6 6 4 5 6 nan
nan 6 7 7 5 10 8 9 5 4 8 10 5 8 10 9 6 5 6 5 6 6 6 6 6 6 5 8 7 5 5 5 5 5 5 6 6 7 8 7 11 12 9 8 7 5 5 6 nan
nan 3 6 8 7 3 7 12 3 10 10 4 11 17 15 10 4 5 3 4 6 7 6 6 6 6 6 6 8 7 6 6 5 6 5 5 6 8 10 10 12 12 11 9 8 7 6 6 nan
nan 7 9 8 6 6 4 8 12 16 3 6 15 17 13 6 3 4 4 4 4 6 6 6 6 6 6 6 7 5 6 8 6 6 7 7 8 8 7 7 8 8 8 7 7 7 5 3 nan
nan 6 9 9 7 3 3 6 18 9 7 10 8 8 4 3 3 4 7 7 4 4 7 8 6 7 5 6 7 6 7 7 7 9 9 7 6 8 7 5 3 4 4 7 7 5 6 7 nan
nan 11 9 10 11 8 8 6 6 4 12 14 13 8 5 4 3 4 5 5 8 7 6 7 7 7 6 6 7 7 6 6 7 9 10 6 7 6 6 6 7 7 6 8 6 7 7 5 nan
nan 14 12 10 5 6 8 4 3 2 16 24 10 7 5 3 4 7 7 5 6 6 8 8 7 6 7 7 6 7 7 7 7 7 8 6 7 7 6 6 8 8 8 7 6 6 6 5 nan
nan 11 10 8 5 5 7 5 -0 1 15 18 6 5 6 6 4 5 8 9 6 6 9 8 8 8 8 8 7 7 8 8 7 8 8 6 6 7 7 7 7 8 7 7 7 7 7 5 nan
nan -0 4 11 8 6 3 10 9 6 11 13 6 5 6 5 7 7 7 8 4 8 9 9 7 9 8 7 7 8 8 8 6 8 9 7 7 7 7 7 7 6 7 7 8 8 8 8 nan
nan 4 8 6 5 8 4 10 14 6 11 11 6 4 4 8 7 3 8 9 6 9 9 7 7 8 8 7 7 7 8 8 7 8 9 8 6 7 7 7 7 7 7 7 8 8 7 9 nan
nan 11 3 9 11 6 10 8 12 9 6 10 11 6 4 5 7 9 7 9 9 6 7 7 8 8 7 7 8 9 9 7 8 8 9 10 10 10 8 7 8 8 7 8 9 9 9 8 nan
nan 9 7 11 8 8 9 9 12 12 9 5 7 9 8 8 9 8 7 9 9 7 6 5 8 7 7 5 6 8 10 10 9 8 10 12 11 9 8 8 10 10 8 8 10 9 9 11 nan
nan 4 7 12 10 9 10 10 7 6 5 7 9 11 9 9 11 10 9 8 7 6 6 7 6 6 5 7 7 9 9 8 9 9 9 9 8 9 8 8 9 9 9 9 8 8 8 9 nan
nan 6 9 9 9 9 10 5 11 10 6 6 6 10 8 9 12 10 9 8 7 6 4 6 7 6 5 7 8 9 9 8 8 9 9 8 10 10 9 8 8 7 6 8 8 8 7 7 nan
nan 9 6 11 7 7 9 10 12 9 13 10 8 12 12 10 9 9 8 7 6 6 6 5 8 6 6 6 6 8 8 9 8 9 10 11 10 9 8 8 8 8 8 7 7 9 9 8 nan
nan 12 8 9 7 9 7 11 10 18 12 11 9 9 12 11 10 8 8 7 7 6 6 6 6 7 9 7 5 9 7 7 8 8 9 10 9 8 7 7 7 8 8 8 7 8 8 8 nan
nan 9 12 8 6 6 7 13 10 13 11 9 12 7 10 12 12 9 8 7 5 7 7 7 5 5 9 9 7 6 7 7 9 10 9 7 9 9 9 9 7 6 7 8 8 8 8 8 nan
nan 10 9 10 8 8 11 5 7 11 13 8 10 11 8 10 11 9 9 7 7 7 8 8 7 5 7 8 9 8 7 7 6 8 8 8 8 9 8 9 8 7 8 8 8 8 8 8 nan
nan 9 8 7 11 12 9 4 7 6 10 18 8 12 11 10 10 10 9 7 8 8 7 8 8 4 7 8 7 8 8 8 7 6 8 7 7 10 11 9 7 8 9 9 8 8 8 8 nan
nan 8 7 9 7 14 9 4 11 8 12 20 13 10 9 10 11 12 9 8 8 7 7 7 7 5 6 6 6 8 8 8 9 8 7 8 9 9 10 8 9 8 8 8 7 7 8 9 nan
nan 10 10 3 8 12 5 5 12 10 24 22 15 9 10 9 10 11 9 8 8 8 8 7 7 6 6 7 6 7 8 9 9 8 6 9 8 9 9 8 9 8 8 8 7 7 8 8 nan
nan 4 6 13 14 4 9 11 11 7 12 14 19 16 12 12 12 11 12 10 8 11 12 9 8 7 4 7 8 7 9 7 9 11 9 7 8 8 9 9 9 9 8 8 7 7 9 7 nan
nan 9 9 13 9 9 8 10 13 12 10 10 8 12 18 21 17 15 11 10 11 10 10 12 11 9 6 6 8 8 9 8 8 9 10 9 8 9 9 10 9 9 8 8 8 8 8 8 nan
nan nan nan nan nan nan nan nan nan nan nan nan nan nan nan nan nan nan nan nan nan nan nan nan nan nan nan nan nan nan nan nan nan nan nan nan nan nan nan nan nan nan nan nan nan nan nan nan nan
CAPE
1 31 32 342 226 129 36 2 13 29 14 0 7 61 106 259 4 0 226 417 988 1386 1627 1963 2566 2454 2278 2381 2474 2296 2262 2239 2329 2329 2232 1849 1987 1914 1738 1615 1666 1630 1613 1749 1939 2000 2166 2347 1401
0 52 626 382 87 29 1 11 22 12 1 1 5 35 102 317 471 467 297 656 1052 1318 1406 1909 2538 2572 2306 2391 2402 2494 2550 2403 2269 2203 1925 1926 2062 1953 1839 1594 1456 1407 1401 1451 1666 1923 2136 2010 1876
36 739 437 369 173 7 0 12 1 1 2 31 10 33 201 217 282 313 312 738 924 1070 1459 1613 2159 2115 2377 2439 2477 2503 2408 2486 2366 2296 2191 2231 1950 1891 1763 1748 1710 1690 1566 1393 1449 1636 1820 1840 1758
448 840 500 368 79 43 11 4 35 23 44 7 26 73 164 230 226 339 454 682 858 1053 1354 1888 2047 2085 2283 2463 1954 1989 2345 2470 2132 2340 2226 2222 1996 1942 1839 1713 1464 1640 1604 1637 1494 1496 1463 1401 1303
321 487 251 118 89 6 21 28 63 34 9 22 18 44 106 104 213 264 475 598 715 999 1242 1429 2354 2131 1902 2110 2111 1300 1736 1869 1958 2470 2233 1978 1935 1595 1472 1604 1379 1253 1131 1552 1443 1477 1402 1171 1234
414 104 73 82 67 101 53 54 24 10 0 10 43 28 66 119 186 375 464 525 852 768 806 1417 2018 1911 1883 1501 1352 1490 1656 1758 1854 1870 1745 1600 1517 1347 1079 852 836 1004 1244 1244 1558 1341 1458 1334 998
399 125 2 186 161 121 74 21 4 0 0 0 3 31 75 171 328 393 430 556 732 829 868 1173 1011 1317 1831 1500 1522 1708 1705 1583 1524 1408 1216 1057 961 1024 1239 1469 1225 1176 1144 699 885 1241 899 1251 916
323 47 61 113 126 184 196 31 1 13 14 0 21 28 94 161 257 49 156 386 528 648 807 913 605 714 1194 1154 1338 1405 1410 1366 1331 1249 1232 1334 1614 1730 1646 1315 1051 1041 791 795 788 1054 658 1154 1352
67 43 75 47 169 273 285 58 23 11 0 0 9 21 53 157 71 26 48 174 361 511 574 594 534 434 622 858 1183 1637 1534 1450 1462 1401 1610 1354 861 1034 1141 958 1450 1284 1254 1287 1075 853 778 1101 1498
191 23 15 113 107 309 376 306 165 22 1 0 0 12 130 101 77 30 0 80 92 253 236 218 242 272 345 717 692 920 975 754 318 228 833 817 735 939 1467 1965 2297 2173 1620 1340 1313 1177 984 1242 910
69 26 34 29 15 313 437 260 109 9 18 0 0 14 137 72 40 10 0 0 7 118 81 61 67 121 63 96 312 424 653 490 0 131 584 676 838 1367 122 0 0 50 1450 1350 1192 1424 1034 632 704
54 38 17 36 181 244 347 39 321 275 185 1 0 88 45 46 0 0 0 0 98 100 33 24 58 72 0 12 218 374 646 113 80 293 395 238 140 321 2 0 0 0 202 770 892 663 654 553 352
41 30 38 158 287 285 9 3 233 122 26 0 0 0 0 0 0 0 0 0 67 44 2 0 0 7 0 171 146 519 600 571 218 132 98 0 0 16 171 0 0 39 52 55 317 631 778 731 775
39 95 162 266 393 200 90 20 96 18 54 0 0 0 0 0 0 0 0 0 0 0 0 0 0 0 21 216 326 415 438 564 0 171 111 0 0 73 145 0 0 245 194 4 1 128 596 1039 961
130 144 157 131 145 153 197 115 58 34 67 0 0 0 0 0 0 0 0 0 0 0 0 0 0 38 77 146 139 202 425 326 0 18 278 225 255 207 119 14 0 96 466 449 121 368 462 445 168
52 0 17 128 158 117 78 114 128 110 173 0 0 0 0 0 0 0 0 0 0 0 0 0 62 138 172 198 102 292 302 337 0 24 388 338 437 654 238 54 66 280 538 468 619 700 475 50 217
0 27 33 103 192 112 10 24 0 56 251 97 0 0 0 0 0 0 0 0 0 0 0 86 381 191 274 156 310 585 178 316 447 518 767 1126 845 1222 380 121 167 289 606 755 582 344 580 236 332
29 114 54 80 122 87 1 0 0 43 206 43 12 0 0 0 0 0 0 0 0 9 68 333 290 138 103 120 374 745 623 437 476 619 710 814 787 436 296 209 17 108 290 170 98 330 347 269 90
0 0 0 37 155 17 0 0 0 9 0 0 0 32 0 0 0 0 0 0 0 58 0 252 159 84 27 263 406 409 575 449 592 701 643 697 699 474 498 25 0 0 45 63 77 1 0 0 9
0 0 0 81 111 4 0 0 0 0 0 0 0 61 1 0 0 0 0 0 32 59 0 70 58 8 97 152 364 48 264 488 662 399 311 883 1615 465 102 0 4 0 0 0 0 0 0 0 0
0 0 5 37 119 29 14 0 0 0 0 0 0 48 9 0 0 0 0 0 23 51 7 42 7 0 85 44 738 569 723 631 588 285 379 929 1355 672 398 123 145 159 0 0 0 0 0 0 0
0 0 0 89 43 2 4 0 0 0 0 0 0 97 92 0 0 0 0 13 45 53 71 72 14 0 0 205 613 825 985 875 426 149 210 946 1161 1469 1561 1207 1243 196 0 0 0 0 0 0 0
0 0 14 118 35 21 8 0 0 0 0 0 0 8 71 7 0 0 0 17 51 45 123 228 76 88 0 127 300 558 720 377 211 104 273 636 1094 1462 1637 1401 1307 155 0 0 0 0 0 0 0
0 0 0 21 0 0 0 1 0 4 11 0 0 15 69 53 0 0 0 0 34 32 148 342 194 156 48 445 670 291 519 217 347 180 230 404 597 1225 1711 1297 1266 618 224 15 0 0 0 0 0
0 0 0 0 0 0 0 0 0 0 4 20 0 0 102 24 5 0 0 8 11 22 138 474 311 172 51 338 832 1073 874 387 352 261 288 373 614 815 1647 1643 1138 794 513 273 0 0 0 0 0
0 0 0 0 0 0 0 0 0 0 0 6 1 0 23 129 92 0 0 0 17 18 131 694 354 209 50 126 376 722 1215 984 486 249 352 303 596 693 1495 1681 1375 1267 1051 554 17 8 0 0 0
0 0 0 0 0 0 0 0 0 0 0 0 22 8 24 148 223 52 0 0 0 10 64 714 511 260 102 136 165 616 1013 851 714 506 410 428 372 432 1042 1450 1713 1685 1798 1171 817 502 75 72 1
0 0 0 0 0 0 0 0 0 16 20 38 101 59 49 124 288 180 21 0 0 2 26 391 637 437 286 272 191 367 930 1493 1052 713 674 623 609 643 772 1553 1815 1964 1986 1643 1374 1173 779 617 225
0 0 0 0 0 0 0 0 0 0 0 37 23 30 215 419 394 249 132 0 0 0 26 196 696 595 534 523 445 307 797 1506 1160 1049 910 798 873 978 1270 1205 1737 1911 2182 1924 1738 1690 1672 1669 1163
0 0 0 0 0 0 0 0 0 0 0 0 192 1118 727 491 366 354 157 76 0 0 82 202 473 760 703 678 524 427 619 1254 1455 1087 1528 1212 931 914 1504 1375 1783 1807 1959 2133 1924 1825 1982 1844 1816